EST,Max TemperatureF,Mean TemperatureF,Min TemperatureF,Max Dew PointF,MeanDew PointF,Min DewpointF,Max Humidity, Mean Humidity, Min Humidity, Max Sea Level PressureIn, Mean Sea Level PressureIn, Min Sea Level PressureIn, Max VisibilityMiles, Mean VisibilityMiles, Min VisibilityMiles, Max Wind SpeedMPH, Mean Wind SpeedMPH, Max Gust SpeedMPH,PrecipitationIn, CloudCover, Events, WindDirDegrees
2013-2-1,26,22,19,9,6,1,54,47,40,30.13,29.86,29.69,10,10,10,14,10,23,0.00,2,,279
2013-2-2,26,20,15,12,6,3,74,55,37,30.23,30.12,30.04,10,8,3,12,5,23,0.00,3,Snow,264
2013-2-3,28,22,15,14,11,9,80,67,47,30.03,29.87,29.75,10,8,2,7,2,,0.00,3,,346
2013-2-4,26,22,19,16,7,1,80,55,34,29.93,29.84,29.75,10,9,3,14,4,23,0.00,5,,287
2013-2-5,26,22,19,19,13,3,80,67,46,29.97,29.92,29.90,10,7,2,7,1,,0.00,8,Snow,60
2013-2-6,35,28,21,21,14,-2,80,62,33,30.31,30.06,29.89,10,7,2,12,3,21,0.00,5,,321
2013-2-7,28,22,17,10,3,-2,54,44,33,30.48,30.40,30.32,10,10,10,9,6,,0.00,1,,25
2013-2-8,30,26,21,25,18,10,80,71,54,30.35,29.91,29.56,10,3,0,33,14,48,0.01,8,Fog-Snow-Thunderstorm,56
2013-2-9,24,20,15,16,8,-2,80,59,36,30.26,29.92,29.68,10,4,0,25,18,45,0.01,5,,334
2013-2-10,35,19,3,9,-1,-11,58,42,23,30.43,30.33,30.26,10,10,10,10,6,16,0.00,0,,310
2013-2-11,44,34,24,41,29,9,93,78,47,30.32,30.00,29.66,10,5,0,12,6,,0.01,7,Fog-Rain,201
2013-2-12,42,38,33,39,28,21,93,71,49,29.91,29.78,29.68,10,9,0,14,5,24,0.01,7,,289
2013-2-13,41,32,24,27,20,14,86,61,45,29.92,29.82,29.69,10,9,2,9,3,,0.00,5,,328
2013-2-14,41,32,24,28,23,19,86,71,45,29.98,29.85,29.70,10,9,2,10,6,16,0.00,3,,329
2013-2-15,46,38,30,32,29,25,87,77,57,30.00,29.96,29.91,9,6,2,9,4,21,0.00,4,,215
2013-2-16,37,32,26,28,21,12,86,68,48,29.95,29.87,29.70,10,7,2,15,10,21,0.00,8,Snow,4
2013-2-17,26,20,14,12,2,-6,55,44,29,29.83,29.67,29.56,10,10,6,23,15,40,0.00,4,,329
2013-2-18,30,21,12,5,-1,-4,53,45,32,30.16,30.00,29.85,10,10,10,17,11,29,0.00,0,,304
2013-2-19,42,34,26,37,31,12,87,76,55,30.08,29.81,29.63,10,7,1,16,8,24,0.03,5,Rain,225
2013-2-20,37,29,21,28,14,5,75,55,43,29.88,29.74,29.63,10,10,10,15,10,29,0.04,5,,289
2013-2-21,28,24,19,10,8,7,63,55,47,30.26,29.98,29.86,10,10,10,17,9,30,0.00,2,,300
2013-2-22,35,27,19,25,16,9,75,65,52,30.37,30.30,30.24,10,10,10,14,9,,0.00,2,,59
2013-2-23,37,34,32,32,28,25,87,79,75,30.28,30.08,29.82,10,6,1,12,7,18,0.01,8,Rain,110
2013-2-24,39,34,30,32,28,21,87,77,64,29.92,29.80,29.72,10,7,2,16,11,23,0.01,8,Snow,5
2013-2-25,42,34,26,25,22,18,75,64,49,30.23,30.09,29.92,10,10,10,12,7,24,0.00,2,,356
2013-2-26,39,32,26,27,23,19,80,71,49,30.31,30.20,29.99,10,10,1,14,4,22,0.10,6,,93
2013-2-27,42,38,33,37,33,27,93,83,75,29.98,29.73,29.55,10,3,0,21,11,29,0.69,8,Rain,59
2013-2-28,44,38,33,36,31,28,93,79,61,29.62,29.59,29.54,10,6,0,6,2,,0.00,6,,46